Showing default

CONNECTA IOT-14, 67401

Orbit data source: Space-Track

CONNECTA IOT-14, 67401 is a payload satellite owned by Plan-S (TR) in SSO that was launched on Sun, 11 Jan 2026 UTC via an FALCON 9 launch vehicle from the Air Force Western Test Range (AFWTR). Payload-class satellites include a variety of spacecraft equipped with specific instruments for various scientific and technological missions. These include communications satellites like Starlink; space stations such as the ISS; scientific satellites like the Hubble; Earth observation satellites from companies like Planet Labs, Umbra, and HawkEye 360; GPS; miniature CubeSats for education and research; and military/defense satellites.

Loading next visibility...
Identifier
67401, 2026-004AQ
Orbit
SSO
Country
Flag of TRTR / TURK
Related business
Manufacturer
Plan-S
Mission
Operational spacecraft
Bus & Motor
CUBESAT 6U, Unknown motor
Mass
10 kg wet, 10 kg dry
Launch date (UTC)
2026-01-11 (3 months ago)
Launch vehicle
FALCON 9
Launch site
Air Force Western Test Range (AFWTR)
Object type
Payload
Rocket body
Debris
Shape & HBR
Unknown shape, 2.2 m
Radar Cross Section
RCS unknown

Expand to show TLE details & history
Last TLE update: 7 hours ago

TLE from 7 hours ago
0 CONNECTA IOT-14
1 67401U 26004AQ  26095.51298405  .00004277  00000-0  21300-3 0  9995
2 67401  97.4516  95.6164 0008389 226.0836 133.9707 15.18088128 12733
Epoch: 2026-04-05T12:18Z
TLE epoch observation values (Epoch: 2026-04-05T12:18:41.821Z)
Latitude
0.00003°
Longitude
77.12481°
Altitude
518.722 km
Speed
7.602 km/s
True Right ascension
06h 22m 27s
True Declination
0° 00' 00"
Sunlit
Object was in daylight at epoch
Visualization orbit readout
Latitude
Unknown
Longitude
Unknown
Altitude
Unknown
Speed
Unknown
Apparent Right ascension
Unknown
Apparent Declination
Unknown
Sunlit
N/A
Visualization observer readout
Local Sidereal Time
01:31:56
Azimuth
Unknown
Elevation
Unknown
Doppler factor
Unknown
Orbital elements
Apogee altitude
514.367 km
Perigee altitude
502.812 km
Semi-major axis
6,886.726 km
Eccentricity
0.00084
Inclination
97.4516°
RAAN
95.6164°
Arg. of periapsis
226.0836°
True anomaly
134.03983°
Mean anomaly
133.9707°
Eccentric anomaly
134.00527°
Mean motion
3.79773 °/min
Orbital period
94.79 mins
BSTAR
0.000213
Loading maneuver chart data...
Computing Atmospheric mass density...
Loading historical data...
Loading historical data...
Loading historical data...
Loading historical data...
Loading historical data...
Loading historical data...
Loading historical data...

Documentation

Showing up to 5 results
|